Tracking 27086 objects as of 22-Mar-2023
HD Live streaming from Space Station
objects crossing your sky now

STARLINK-5239

Track STARLINK-5239 now!
10-day predictions
STARLINK-5239 is classified as:


NORAD ID: 54183
Int'l Code: 2022-141AC
Perigee: 546.0 km
Apogee: 547.7 km
Inclination: 53.2 °
Period: 95.4 minutes
Semi major axis: 6917 km
RCS: Unknown
Launch date: October 28, 2022
Source: United States (US)
Launch site: AIR FORCE WESTERN TEST RANGE (AFWTR)
Your satellite tracking list
Your tracking list is empty




NASA's NSSDC Master Catalog

Two Line Element Set (TLE):
1 54183U 22141AC  23081.01373382  .00003466  00000-0  23565-3 0  9995
2 54183  53.2178 188.6248 0001229  81.5730 278.5402 15.08854939 22491
Source of the keplerian elements: AFSPC